EW6013 Weather Reports


Display with metric or nautical units.
time (UTC)temp
F
wind
direction
speed
MPH
gust
MPH
rain 1hr
in
rain 24hr
in
rain mn
in
humidity
%
barometer
mb
20200127084016 36 194 2.0 5.0 0.00 0.00 0.00 80 999.2
20200127083516 36 219 2.0 5.0 0.00 0.00 0.00 80 999.2
20200127083016 36 207 2.0 5.0 0.00 0.00 0.00 80 999.3
20200127082516 36 195 1.0 3.0 0.00 0.00 0.00 81 999.3
20200127082016 36 195 1.0 4.0 0.00 0.00 0.00 81 999.4
20200127081516 36 195 2.0 4.0 0.00 0.00 0.00 81 999.5
20200127081016 36 191 2.0 4.0 0.00 0.00 0.00 82 999.6
20200127080516 36 189 0.0 4.0 0.00 0.00 0.00 82 999.5
20200127080016 35 220 1.0 4.0 0.00 0.00 0.00 83 999.6
20200127075516 35 220 1.0 4.0 0.00 0.00 0.00 83 999.6
20200127075016 35 218 2.0 4.0 0.00 0.00 0.00 84 999.6
20200127074516 35 209 2.0 4.0 0.00 0.00 0.00 84 999.7
20200127074016 35 206 1.0 5.0 0.00 0.00 0.00 85 999.8
20200127073516 34 206 2.0 5.0 0.00 0.00 0.00 87 999.8
20200127073016 33 202 2.0 5.0 0.00 0.00 0.00 89 999.8
20200127072516 32 225 0.0 5.0 0.00 0.00 0.00 90 999.8
20200127072016 32 0.0 0.0 0.00 0.00 0.00 89 999.9
20200127071516 32 0.0 0.0 0.00 0.00 0.00 89 999.9
20200127071016 32 0.0 0.0 0.00 0.00 0.00 89 1000.0
20200127070516 32 0.0 0.0 0.00 0.00 0.00 89 1000.0
20200127070016 32 0.0 0.0 0.00 0.01 0.00 89 1000.1
20200127065516 32 0.0 0.0 0.00 0.01 0.00 89 1000.1
20200127065016 32 0.0 0.0 0.00 0.01 0.00 89 1000.1
20200127064516 33 0.0 0.0 0.00 0.01 0.00 89 1000.1
20200127064016 33 0.0 0.0 0.00 0.01 0.00 90 1000.1
20200127063516 33 0.0 0.0 0.00 0.01 0.00 90 1000.1
20200127063016 33 0.0 0.0 0.00 0.01 0.00 89 1000.1
20200127062516 33 0.0 0.0 0.00 0.01 0.00 89 1000.1
20200127062016 33 0.0 0.0 0.00 0.01 0.00 89 1000.1
20200127061516 33 0.0 0.0 0.00 0.01 0.00 89 1000.2
20200127061016 33 0.0 0.0 0.00 0.01 0.00 89 1000.2
20200127060516 33 0.0 0.0 0.00 0.01 0.00 88 1000.2
20200127060016 33 0.0 0.0 0.00 0.01 0.00 88 1000.3
20200127055516 33 0.0 0.0 0.00 0.01 0.00 88 1000.3
20200127055016 33 0.0 0.0 0.00 0.01 0.00 89 1000.4
20200127054516 33 0.0 0.0 0.00 0.01 0.00 89 1000.5
20200127054016 33 0.0 0.0 0.00 0.01 0.00 89 1000.5
20200127053516 33 0.0 2.0 0.00 0.01 0.00 89 1000.6
20200127053016 33 188 0.0 4.0 0.00 0.01 0.00 89 1000.6
20200127052516 33 201 1.0 4.0 0.00 0.01 0.00 89 1000.6
20200127052016 33 218 0.0 2.0 0.00 0.01 0.00 88 1000.6
20200127051516 34 0.0 0.0 0.00 0.01 0.00 88 1000.7
20200127051016 34 0.0 0.0 0.00 0.01 0.00 88 1000.7
20200127050516 34 0.0 0.0 0.00 0.01 0.00 88 1000.8
20200127050016 34 0.0 0.0 0.00 0.01 0.01 88 1000.8
20200127045515 34 0.0 0.0 0.00 0.01 0.01 88 1000.8
20200127045016 34 0.0 0.0 0.00 0.01 0.01 88 1000.9
20200127044516 34 0.0 0.0 0.00 0.01 0.01 88 1000.9
20200127044015 34 0.0 0.0 0.00 0.02 0.01 88 1000.9
20200127043516 34 0.0 0.0 0.00 0.02 0.01 88 1000.9
20200127043015 34 0.0 0.0 0.00 0.02 0.01 88 1001.0
20200127042516 34 0.0 3.0 0.00 0.02 0.01 88 1001.0
20200127042015 34 178 1.0 3.0 0.00 0.02 0.01 88 1001.0
20200127041515 34 178 0.0 2.0 0.00 0.02 0.01 87 1001.0
20200127041015 34 0.0 2.0 0.00 0.03 0.01 87 1001.1
20200127040516 34 178 0.0 2.0 0.00 0.03 0.01 87 1001.1
20200127040015 34 178 0.0 3.0 0.00 0.04 0.01 87 1001.1
20200127035515 34 178 0.0 3.0 0.00 0.04 0.01 87 1001.1
20200127035015 34 0.0 0.0 0.00 0.04 0.01 86 1001.1
20200127034516 34 0.0 0.0 0.00 0.04 0.01 86 1001.2
20200127034015 34 0.0 0.0 0.00 0.04 0.01 86 1001.2
20200127033515 34 0.0 0.0 0.00 0.04 0.01 86 1001.1
20200127033016 34 0.0 0.0 0.00 0.05 0.01 86 1001.1
20200127032515 34 0.0 4.0 0.00 0.05 0.01 86 1001.1
20200127032015 34 180 1.0 4.0 0.00 0.06 0.01 86 1001.1
20200127031515 34 0.0 0.0 0.00 0.06 0.01 86 1001.1
20200127031016 34 0.0 0.0 0.00 0.06 0.01 85 1001.0
20200127030515 35 0.0 1.0 0.00 0.06 0.01 85 1001.1
20200127030015 35 178 0.0 1.0 0.00 0.07 0.01 85 1001.1
20200127025515 35 178 0.0 4.0 0.00 0.08 0.01 84 1001.1
20200127025015 35 187 1.0 4.0 0.00 0.09 0.01 84 1001.2
20200127024515 35 207 2.0 4.0 0.00 0.09 0.01 83 1001.1
20200127024015 35 194 2.0 7.0 0.00 0.10 0.01 84 1001.0
20200127023515 34 203 2.0 7.0 0.00 0.11 0.01 87 1001.0
20200127023015 33 218 2.0 5.0 0.00 0.11 0.01 89 1001.0
20200127022515 32 227 0.0 3.0 0.00 0.13 0.01 90 1001.0
20200127022015 32 0.0 0.0 0.00 0.15 0.01 90 1001.1
20200127021515 32 0.0 0.0 0.00 0.17 0.01 89 1001.1
20200127021015 32 0.0 0.0 0.00 0.18 0.01 89 1001.2
20200127020515 32 0.0 0.0 0.00 0.20 0.01 89 1001.2
20200127020015 32 0.0 0.0 0.00 0.22 0.01 89 1001.2
20200127015515 31 0.0 0.0 0.00 0.25 0.01 89 1001.1
20200127015015 31 0.0 0.0 0.00 0.28 0.01 89 1001.2
20200127014515 31 0.0 0.0 0.00 0.30 0.01 89 1001.3
20200127014015 31 0.0 0.0 0.00 0.34 0.01 89 1001.4
20200127013515 32 0.0 0.0 0.00 0.40 0.01 89 1001.5
20200127013015 32 0.0 0.0 0.00 0.44 0.01 89 1001.6
20200127012515 32 0.0 0.0 0.00 0.46 0.01 88 1001.6
20200127012015 32 0.0 0.0 0.00 0.48 0.01 88 1001.6
20200127011515 32 0.0 0.0 0.00 0.52 0.01 88 1001.6
20200127011015 32 0.0 0.0 0.00 0.53 0.01 88 1001.7
20200127010515 32 0.0 0.0 0.00 0.54 0.01 87 1001.7
20200127010015 32 0.0 0.0 0.00 0.56 0.01 87 1001.7
20200127005515 32 0.0 0.0 0.00 0.60 0.01 87 1001.7
20200127005015 32 0.0 0.0 0.00 0.64 0.01 86 1001.7
20200127004515 32 0.0 0.0 0.00 0.68 0.01 85 1001.7
20200127004016 33 0.0 0.0 0.00 0.69 0.01 85 1001.7
20200127003515 33 0.0 0.0 0.00 0.70 0.01 85 1001.7
20200127003015 33 0.0 0.0 0.00 0.72 0.01 84 1001.8
20200127002515 33 0.0 0.0 0.00 0.74 0.01 83 1001.8
20200127002015 34 0.0 0.0 0.00 0.76 0.01 83 1001.8
20200127001515 34 0.0 0.0 0.00 0.79 0.01 82 1001.7
20200127001015 34 0.0 0.0 0.00 0.80 0.01 82 1001.7
20200127000515 34 0.0 0.0 0.00 0.80 0.01 82 1001.6
20200127000015 35 0.0 0.0 0.00 0.82 0.01 81 1001.7
20200126235515 35 0.0 0.0 0.00 0.82 0.01 81 1001.7
20200126235015 35 0.0 0.0 0.00 0.83 0.01 80 1001.6
20200126234515 36 0.0 0.0 0.00 0.84 0.01 79 1001.6
20200126234015 36 0.0 2.0 0.00 0.86 0.01 78 1001.7
20200126233515 36 208 0.0 3.0 0.00 0.86 0.01 76 1001.6
20200126233015 37 208 1.0 3.0 0.00 0.86 0.01 75 1001.6
20200126232515 38 0.0 0.0 0.00 0.86 0.01 74 1001.6
20200126232015 38 0.0 0.0 0.00 0.87 0.01 72 1001.6
20200126231515 38 0.0 0.0 0.00 0.87 0.01 72 1001.6
20200126231015 39 0.0 2.0 0.00 0.88 0.01 71 1001.6
20200126230515 39 213 0.0 4.0 0.00 0.88 0.01 69 1001.5
20200126230015 39 221 2.0 4.0 0.00 0.89 0.01 69 1001.5
20200126225515 39 236 1.0 4.0 0.00 0.91 0.01 69 1001.5
20200126225015 39 236 2.0 4.0 0.00 0.91 0.01 68 1001.5
20200126224516 39 269 1.0 2.0 0.00 0.92 0.01 68 1001.6
20200126224017 40 0.0 2.0 0.00 0.92 0.01 67 1001.6
20200126223517 40 269 0.0 2.0 0.00 0.92 0.01 67 1001.5
20200126223017 40 269 0.0 3.0 0.00 0.92 0.01 67 1001.5
20200126222516 40 269 2.0 4.0 0.00 0.92 0.01 67 1001.6
20200126222016 40 271 1.0 4.0 0.00 0.92 0.01 66 1001.5
20200126221517 40 267 1.0 4.0 0.00 0.92 0.01 66 1001.5
20200126221017 40 0.0 3.0 0.00 0.92 0.01 66 1001.4
20200126220517 40 276 1.0 4.0 0.00 0.92 0.01 66 1001.4
20200126220017 40 285 1.0 4.0 0.00 0.93 0.01 66 1001.4
20200126215517 40 263 2.0 9.0 0.00 0.93 0.01 65 1001.4
20200126215017 40 272 3.0 9.0 0.00 0.93 0.01 65 1001.4
20200126214516 40 263 1.0 6.0 0.00 0.93 0.01 66 1001.3
20200126214017 40 229 1.0 6.0 0.00 0.93 0.01 65 1001.4
20200126213516 40 237 2.0 7.0 0.00 0.93 0.01 65 1001.3
20200126213016 40 277 2.0 9.0 0.00 0.93 0.01 65 1001.3
20200126212516 41 250 3.0 10.0 0.00 0.93 0.01 65 1001.3
20200126212016 41 263 3.0 14.0 0.00 0.93 0.01 64 1001.3
20200126211516 41 274 5.0 14.0 0.00 0.93 0.01 63 1001.3
20200126211017 41 283 6.0 20.0 0.00 0.93 0.01 62 1001.3
20200126210516 41 287 8.0 20.0 0.00 0.93 0.01 62 1001.2
20200126210016 42 266 7.0 16.0 0.00 0.93 0.01 63 1001.1
20200126205516 42 263 5.0 13.0 0.00 0.93 0.01 64 1001.0
20200126205016 42 259 3.0 13.0 0.00 0.93 0.01 63 1000.9
20200126204516 43 230 4.0 12.0 0.00 0.93 0.01 63 1000.8
20200126204016 43 268 5.0 12.0 0.00 0.93 0.01 64 1000.8
20200126203516 43 251 4.0 12.0 0.00 0.93 0.01 63 1000.8
20200126203016 43 242 6.0 12.0 0.00 0.93 0.01 64 1000.8
20200126202516 43 251 5.0 13.0 0.00 0.93 0.01 64 1000.8
20200126202016 43 278 4.0 24.0 0.00 0.93 0.01 64 1000.7
20200126201516 43 281 6.0 24.0 0.00 0.93 0.01 65 1000.8
20200126201016 44 251 3.0 16.0 0.00 0.93 0.01 65 1000.7
20200126200516 44 285 3.0 16.0 0.00 0.93 0.01 66 1000.6
20200126200016 44 275 6.0 13.0 0.00 0.93 0.01 65 1000.5
20200126195516 44 291 5.0 17.0 0.00 0.93 0.01 65 1000.4
20200126195017 44 294 6.0 17.0 0.00 0.93 0.01 64 1000.4
20200126194516 44 283 4.0 13.0 0.00 0.93 0.01 63 1000.4
20200126194016 44 231 7.0 13.0 0.00 0.93 0.01 63 1000.4
20200126193516 44 235 4.0 12.0 0.00 0.93 0.01 64 1000.4
20200126193016 44 244 6.0 12.0 0.00 0.93 0.01 64 1000.4
20200126192516 45 243 5.0 13.0 0.00 0.93 0.01 64 1000.4
20200126192016 45 272 4.0 14.0 0.00 0.93 0.01 63 1000.4
20200126191516 45 247 7.0 14.0 0.00 0.93 0.01 62 1000.3
20200126191016 45 247 6.0 16.0 0.00 0.93 0.01 62 1000.3
20200126190516 46 248 5.0 16.0 0.00 0.93 0.01 63 1000.3
20200126190016 45 231 5.0 12.0 0.00 0.93 0.01 63 1000.3
20200126185516 45 270 6.0 15.0 0.00 0.93 0.01 63 1000.3
20200126185016 45 266 4.0 15.0 0.00 0.93 0.01 64 1000.3
20200126184516 45 237 3.0 13.0 0.00 0.93 0.01 64 1000.4
20200126184016 45 255 5.0 13.0 0.00 0.93 0.01 64 1000.5
20200126183516 45 256 4.0 11.0 0.00 0.93 0.01 64 1000.5
20200126183016 45 270 4.0 12.0 0.00 0.93 0.01 63 1000.5
20200126182516 45 236 4.0 15.0 0.00 0.93 0.01 62 1000.5
20200126182016 46 257 5.0 15.0 0.00 0.93 0.01 61 1000.5
20200126181516 46 224 4.0 15.0 0.00 0.93 0.01 62 1000.5
20200126181016 46 231 5.0 15.0 0.00 0.93 0.01 61 1000.5
20200126180516 46 231 4.0 15.0 0.00 0.93 0.01 62 1000.6
20200126180016 46 268 5.0 15.0 0.00 0.93 0.01 62 1000.6
20200126175516 45 255 6.0 14.0 0.00 0.93 0.01 62 1000.6
20200126175016 45 278 6.0 18.0 0.00 0.93 0.01 61 1000.7
20200126174516 46 239 8.0 18.0 0.00 0.93 0.01 60 1000.8
20200126174016 46 254 6.0 13.0 0.00 0.93 0.01 61 1000.8
20200126173516 46 263 5.0 16.0 0.00 0.93 0.01 60 1000.8
20200126173016 46 294 8.0 16.0 0.00 0.93 0.01 60 1000.9
20200126172516 46 282 7.0 17.0 0.00 0.93 0.01 61 1001.0
20200126172016 46 288 8.0 17.0 0.00 0.93 0.01 61 1001.1
20200126171516 46 256 6.0 18.0 0.00 0.93 0.01 61 1001.1
20200126171016 46 260 5.0 18.0 0.00 0.93 0.01 61 1001.0
20200126170516 46 251 5.0 13.0 0.00 0.93 0.01 61 1001.0
20200126170016 46 303 4.0 16.0 0.00 0.93 0.01 60 1001.1
20200126165516 46 298 8.0 17.0 0.00 0.93 0.01 60 1001.1
20200126165016 45 279 5.0 19.0 0.00 0.93 0.01 61 1001.1
20200126164516 45 280 6.0 19.0 0.00 0.93 0.01 62 1001.2
20200126164015 45 260 6.0 15.0 0.00 0.93 0.01 62 1001.2
20200126163516 44 282 5.0 14.0 0.00 0.93 0.01 64 1001.3
20200126163016 44 296 5.0 15.0 0.00 0.93 0.01 65 1001.4
20200126162515 44 302 5.0 18.0 0.00 0.93 0.01 66 1001.5
20200126162016 44 288 7.0 18.0 0.00 0.93 0.01 68 1001.6
20200126161516 43 301 6.0 13.0 0.00 0.93 0.01 70 1001.7
20200126161016 43 279 6.0 13.0 0.00 0.93 0.01 71 1001.7
20200126160516 43 254 4.0 11.0 0.00 0.93 0.01 72 1001.7
20200126160016 43 289 4.0 12.0 0.00 0.93 0.01 73 1001.7
20200126155516 42 293 5.0 12.0 0.00 0.93 0.01 73 1001.8
20200126155016 42 284 4.0 13.0 0.00 0.93 0.01 75 1001.9
20200126154516 42 279 5.0 14.0 0.00 0.93 0.01 76 1002.0
20200126154015 41 251 5.0 14.0 0.00 0.93 0.01 79 1001.9
20200126153516 41 244 4.0 10.0 0.00 0.93 0.01 81 1002.0
20200126153016 41 276 4.0 11.0 0.00 0.93 0.01 83 1002.1
20200126152515 40 273 3.0 11.0 0.00 0.93 0.01 86 1002.1
20200126152016 40 301 2.0 10.0 0.00 0.93 0.01 87 1002.1
20200126151515 40 321 3.0 10.0 0.00 0.93 0.01 89 1002.2
20200126151016 39 232 2.0 9.0 0.00 0.93 0.01 90 1002.2
20200126150515 39 226 3.0 9.0 0.00 0.93 0.01 92 1002.2
20200126150015 39 280 1.0 3.0 0.00 0.93 0.01 94 1002.2
20200126145515 39 0.0 5.0 0.00 0.93 0.01 94 1002.2
20200126145015 39 248 2.0 8.0 0.00 0.93 0.01 96 1002.2
20200126144516 39 293 2.0 8.0 0.00 0.93 0.01 97 1002.3
20200126144015 39 265 1.0 5.0 0.00 0.93 0.01 97 1002.3
20200126143515 38 212 1.0 5.0 0.00 0.93 0.01 98 1002.3
20200126143016 38 256 1.0 4.0 0.00 0.93 0.01 98 1002.2
20200126142515 38 282 1.0 4.0 0.00 0.93 0.01 98 1002.3
20200126142015 38 277 1.0 3.0 0.00 0.93 0.01 98 1002.3
20200126141515 37 274 0.0 3.0 0.00 0.93 0.01 98 1002.3
20200126141015 37 265 0.0 3.0 0.00 0.93 0.01 98 1002.2
20200126140515 37 273 1.0 3.0 0.00 0.93 0.01 98 1002.3
20200126140015 36 315 0.0 3.0 0.00 0.93 0.01 98 1002.3
20200126135515 36 316 0.0 3.0 0.00 0.93 0.01 98 1002.3
20200126135015 36 281 0.0 2.0 0.00 0.93 0.01 98 1002.4
20200126134515 36 217 0.0 2.0 0.00 0.93 0.01 98 1002.5
20200126134015 36 217 0.0 1.0 0.00 0.93 0.01 98 1002.6
20200126133515 36 0.0 2.0 0.00 0.93 0.01 98 1002.7
20200126133015 36 214 0.0 2.0 0.00 0.93 0.01 98 1002.7
20200126132515 36 0.0 0.0 0.00 0.93 0.01 98 1002.8
20200126132015 36 0.0 0.0 0.00 0.93 0.01 98 1002.8
20200126131516 36 0.0 4.0 0.00 0.93 0.01 98 1002.8
20200126131015 36 219 1.0 4.0 0.00 0.93 0.01 98 1002.8
20200126130515 36 244 0.0 3.0 0.00 0.93 0.01 98 1002.8
20200126130015 36 246 1.0 3.0 0.00 0.93 0.01 98 1002.8
20200126125515 36 252 0.0 3.0 0.00 0.93 0.01 98 1002.9
20200126125015 36 265 0.0 3.0 0.00 0.93 0.01 98 1002.9
20200126124515 36 260 1.0 3.0 0.00 0.93 0.01 98 1002.8
20200126124015 35 243 0.0 4.0 0.00 0.93 0.01 98 1002.8
20200126123515 35 261 1.0 4.0 0.00 0.93 0.01 98 1002.7
20200126123015 35 275 0.0 1.0 0.00 0.93 0.01 98 1002.7
20200126122515 34 212 0.0 3.0 0.00 0.93 0.01 98 1002.7
20200126122015 34 223 1.0 4.0 0.00 0.93 0.01 98 1002.6
20200126121515 33 240 1.0 4.0 0.00 0.93 0.01 98 1002.5
20200126121015 33 0.0 0.0 0.00 0.93 0.01 98 1002.5
20200126120515 33 0.0 2.0 0.00 0.93 0.01 97 1002.4
20200126120015 33 286 0.0 2.0 0.00 0.93 0.01 98 1002.4
20200126115515 33 286 0.0 1.0 0.00 0.93 0.01 98 1002.3
20200126115015 33 286 0.0 1.0 0.00 0.93 0.01 97 1002.2
20200126114515 33 0.0 0.0 0.00 0.93 0.01 97 1002.1
20200126114015 32 0.0 0.0 0.00 0.93 0.01 97 1002.1
20200126113515 32 0.0 0.0 0.00 0.93 0.01 97 1002.1
20200126113015 32 0.0 0.0 0.00 0.93 0.01 97 1002.1
20200126112515 32 0.0 0.0 0.00 0.93 0.01 97 1002.1
20200126112015 32 0.0 0.0 0.00 0.93 0.01 97 1002.0
20200126111515 32 0.0 0.0 0.00 0.93 0.01 97 1001.9
20200126111015 32 0.0 0.0 0.00 0.93 0.01 97 1001.9
20200126110515 33 0.0 0.0 0.00 0.93 0.01 97 1001.8
20200126110015 33 0.0 0.0 0.00 0.93 0.01 97 1001.8
20200126105515 33 0.0 0.0 0.00 0.93 0.01 97 1001.8
20200126105015 33 0.0 0.0 0.00 0.93 0.01 97 1001.9
20200126104515 33 0.0 0.0 0.00 0.93 0.01 97 1001.9
20200126104015 33 0.0 0.0 0.00 0.93 0.01 97 1001.9
20200126103515 33 0.0 0.0 0.00 0.93 0.01 97 1002.0
20200126103015 33 0.0 0.0 0.00 0.93 0.01 97 1002.0
20200126102515 33 0.0 0.0 0.00 0.93 0.01 97 1002.0
20200126102015 33 0.0 0.0 0.00 0.93 0.01 97 1001.9
20200126101515 33 0.0 0.0 0.00 0.93 0.01 97 1001.9
20200126101015 34 0.0 0.0 0.00 0.93 0.01 97 1001.8
20200126100515 34 0.0 0.0 0.00 0.93 0.01 97 1001.8
20200126100015 34 0.0 0.0 0.00 0.93 0.01 97 1001.7
20200126095515 34 0.0 0.0 0.00 0.93 0.01 97 1001.7
20200126095015 34 0.0 0.0 0.00 0.93 0.01 97 1001.7
20200126094515 34 0.0 0.0 0.00 0.93 0.01 97 1001.7
20200126094015 35 0.0 0.0 0.00 0.93 0.01 97 1001.8
20200126093515 35 0.0 0.0 0.00 0.93 0.01 97 1001.8
20200126093015 35 0.0 0.0 0.00 0.93 0.01 97 1001.8
20200126092515 35 0.0 0.0 0.00 0.93 0.01 97 1001.7
20200126092015 35 0.0 0.0 0.00 0.93 0.01 97 1001.6
20200126091514 36 0.0 0.0 0.00 0.93 0.01 97 1001.7
20200126091015 36 0.0 0.0 0.00 0.93 0.01 97 1001.7
20200126090514 36 0.0 0.0 0.00 0.93 0.01 97 1001.6
20200126090015 36 0.0 0.0 0.00 0.93 0.01 97 1001.6
20200126085515 36 0.0 0.0 0.00 0.93 0.01 97 1001.6
20200126085016 36 0.0 0.0 0.00 0.93 0.01 97 1001.6
20200126084517 36 0.0 0.0 0.00 0.93 0.01 97 1001.6